Time,TemperatureF,DewpointF,PressureIn,WindDirection,WindDirectionDegrees,WindSpeedMPH,WindSpeedGustMPH,Humidity,HourlyPrecipIn,Conditions,Clouds,dailyrainin,SoftwareType,DateUTC
2013-05-09 00:03:00,56.0,55.0,29.21,North,0,0.0,0.0,98,0.00,,,0.00,,2013-05-09 04:03:00,
2013-05-09 00:13:00,56.0,55.0,29.21,North,0,0.0,0.0,98,0.00,,,0.00,,2013-05-09 04:13:00,
2013-05-09 00:23:00,55.0,54.0,29.21,North,0,0.0,0.0,98,0.00,,,0.00,,2013-05-09 04:23:00,
2013-05-09 00:33:00,55.0,54.0,29.21,North,0,0.0,0.0,98,0.00,,,0.00,,2013-05-09 04:33:00,
2013-05-09 00:43:00,55.0,54.0,29.21,North,0,0.0,0.0,98,0.00,,,0.00,,2013-05-09 04:43:00,
2013-05-09 00:53:00,54.0,53.0,29.21,North,0,0.0,0.0,98,0.00,,,0.00,,2013-05-09 04:53:00,
2013-05-09 01:02:00,54.0,53.0,29.21,North,0,0.0,0.0,98,0.00,,,0.00,,2013-05-09 05:02:00,
2013-05-09 01:12:00,54.0,53.0,29.21,North,0,0.0,0.0,98,0.00,,,0.00,,2013-05-09 05:12:00,
2013-05-09 01:22:00,54.0,53.0,29.21,North,0,0.0,0.0,98,0.00,,,0.00,,2013-05-09 05:22:00,
2013-05-09 01:32:00,54.0,53.0,29.21,North,0,0.0,0.0,98,0.00,,,0.00,,2013-05-09 05:32:00,
2013-05-09 01:42:00,54.0,53.0,29.21,North,0,0.0,0.0,98,0.00,,,0.00,,2013-05-09 05:42:00,
2013-05-09 01:52:00,53.0,52.0,29.21,North,0,0.0,0.0,98,0.00,,,0.00,,2013-05-09 05:52:00,
2013-05-09 02:02:00,53.0,52.0,29.21,North,0,0.0,0.0,98,0.00,,,0.00,,2013-05-09 06:02:00,
2013-05-09 02:12:00,53.0,52.0,29.21,North,0,0.0,0.0,98,0.00,,,0.00,,2013-05-09 06:12:00,
2013-05-09 02:22:00,53.0,52.0,29.21,North,0,0.0,0.0,98,0.00,,,0.00,,2013-05-09 06:22:00,
2013-05-09 02:32:00,52.0,51.0,29.21,North,0,0.0,0.0,98,0.00,,,0.00,,2013-05-09 06:32:00,
2013-05-09 02:42:00,52.0,51.0,29.21,North,0,0.0,0.0,98,0.00,,,0.00,,2013-05-09 06:42:00,
2013-05-09 02:52:00,52.0,51.0,29.21,North,0,0.0,0.0,98,0.00,,,0.00,,2013-05-09 06:52:00,
2013-05-09 03:01:00,52.0,51.0,29.21,North,0,0.0,0.0,98,0.00,,,0.00,,2013-05-09 07:01:00,
2013-05-09 03:12:00,52.0,51.0,29.21,North,0,0.0,0.0,98,0.00,,,0.00,,2013-05-09 07:12:00,
2013-05-09 03:22:00,51.0,50.0,29.21,North,0,0.0,0.0,98,0.00,,,0.00,,2013-05-09 07:22:00,
2013-05-09 03:32:00,51.0,50.0,29.21,North,0,0.0,0.0,98,0.00,,,0.00,,2013-05-09 07:32:00,
2013-05-09 03:42:00,51.0,50.0,29.21,North,0,0.0,0.0,98,0.00,,,0.00,,2013-05-09 07:42:00,
2013-05-09 03:52:00,51.0,50.0,29.21,North,0,0.0,0.0,98,0.00,,,0.00,,2013-05-09 07:52:00,
2013-05-09 04:02:00,51.0,50.0,29.21,North,0,0.0,0.0,98,0.00,,,0.00,,2013-05-09 08:02:00,
2013-05-09 04:11:00,51.0,50.0,29.21,North,0,0.0,0.0,98,0.00,,,0.00,,2013-05-09 08:11:00,
2013-05-09 04:22:00,51.0,50.0,29.21,North,0,0.0,0.0,98,0.00,,,0.00,,2013-05-09 08:22:00,
2013-05-09 04:32:00,51.0,50.0,29.21,North,0,0.0,0.0,98,0.00,,,0.00,,2013-05-09 08:32:00,
2013-05-09 04:42:00,51.0,50.0,29.21,North,0,0.0,0.0,98,0.00,,,0.00,,2013-05-09 08:42:00,
2013-05-09 04:52:00,51.0,50.0,29.21,North,0,0.0,0.0,98,0.00,,,0.00,,2013-05-09 08:52:00,
2013-05-09 05:02:00,51.0,50.0,29.23,North,0,0.0,0.0,98,0.00,,,0.00,,2013-05-09 09:02:00,
2013-05-09 05:12:00,51.0,50.0,29.23,North,0,0.0,0.0,98,0.00,,,0.00,,2013-05-09 09:12:00,
2013-05-09 05:21:00,51.0,50.0,29.23,North,0,0.0,0.0,98,0.00,,,0.00,,2013-05-09 09:21:00,
2013-05-09 05:32:00,51.0,50.0,29.23,North,0,0.0,0.0,98,0.00,,,0.00,,2013-05-09 09:32:00,
2013-05-09 05:43:00,51.0,50.0,29.23,North,0,0.0,0.0,98,0.00,,,0.00,,2013-05-09 09:43:00,
2013-05-09 05:53:00,51.0,50.0,29.23,North,0,0.0,0.0,98,0.00,,,0.00,,2013-05-09 09:53:00,
2013-05-09 06:02:00,50.0,49.0,29.23,North,0,0.0,0.0,98,0.00,,,0.00,,2013-05-09 10:02:00,
2013-05-09 06:12:00,50.0,49.0,29.23,North,0,0.0,0.0,98,0.00,,,0.00,,2013-05-09 10:12:00,
2013-05-09 06:23:00,50.0,49.0,29.23,North,0,0.0,0.0,98,0.00,,,0.00,,2013-05-09 10:23:00,
2013-05-09 06:33:00,49.0,48.0,29.23,North,0,0.0,0.0,98,0.00,,,0.00,,2013-05-09 10:33:00,
2013-05-09 06:42:00,49.0,48.0,29.23,North,0,0.0,0.0,98,0.00,,,0.00,,2013-05-09 10:42:00,
2013-05-09 06:53:00,49.0,48.0,29.23,North,0,0.0,0.0,98,0.00,,,0.00,,2013-05-09 10:53:00,
2013-05-09 07:02:00,49.0,48.0,29.23,North,0,0.0,0.0,98,0.00,,,0.00,,2013-05-09 11:02:00,
2013-05-09 07:12:00,49.0,48.0,29.23,North,0,0.0,0.0,98,0.00,,,0.00,,2013-05-09 11:12:00,
2013-05-09 07:22:00,49.0,48.0,29.23,North,0,0.0,0.0,98,0.00,,,0.00,,2013-05-09 11:22:00,
2013-05-09 07:32:00,49.0,48.0,29.23,North,0,0.0,0.0,98,0.00,,,0.00,,2013-05-09 11:32:00,
2013-05-09 07:42:00,49.0,48.0,29.23,North,0,0.0,0.0,98,0.00,,,0.00,,2013-05-09 11:42:00,
2013-05-09 07:52:00,50.0,49.0,29.23,North,0,0.0,0.0,98,0.00,,,0.00,,2013-05-09 11:52:00,
2013-05-09 08:01:00,52.0,51.0,29.23,North,0,0.0,0.0,98,0.00,,,0.00,,2013-05-09 12:01:00,
2013-05-09 08:11:00,52.0,51.0,29.23,North,0,0.0,0.0,98,0.00,,,0.00,,2013-05-09 12:11:00,
2013-05-09 08:22:00,56.0,55.0,29.26,North,0,0.0,0.0,98,0.00,,,0.00,,2013-05-09 12:22:00,
2013-05-09 08:32:00,56.0,55.0,29.26,North,0,0.0,0.0,98,0.00,,,0.00,,2013-05-09 12:32:00,
2013-05-09 08:42:00,56.0,55.0,29.26,North,0,0.0,0.0,98,0.00,,,0.00,,2013-05-09 12:42:00,
2013-05-09 08:52:00,67.0,56.0,29.26,North,0,0.0,0.0,69,0.00,,,0.00,,2013-05-09 12:52:00,
2013-05-09 09:01:00,65.0,53.0,29.26,North,0,0.0,0.0,64,0.00,,,0.00,,2013-05-09 13:01:00,
2013-05-09 09:12:00,65.0,53.0,29.26,North,0,0.0,0.0,64,0.00,,,0.00,,2013-05-09 13:12:00,
2013-05-09 09:22:00,74.0,57.0,29.26,North,0,0.0,0.0,55,0.00,,,0.00,,2013-05-09 13:22:00,
2013-05-09 09:32:00,74.0,57.0,29.26,North,0,0.0,0.0,55,0.00,,,0.00,,2013-05-09 13:32:00,
2013-05-09 09:42:00,74.0,57.0,29.26,North,0,0.0,0.0,55,0.00,,,0.00,,2013-05-09 13:42:00,
2013-05-09 09:52:00,80.0,57.0,29.26,North,0,0.0,0.0,46,0.00,,,0.00,,2013-05-09 13:52:00,
2013-05-09 10:02:00,81.0,58.0,29.26,North,0,0.0,0.0,45,0.00,,,0.00,,2013-05-09 14:02:00,
2013-05-09 10:11:00,81.0,58.0,29.26,North,0,0.0,0.0,45,0.00,,,0.00,,2013-05-09 14:11:00,
2013-05-09 10:22:00,81.0,58.0,29.26,North,0,0.0,0.0,45,0.00,,,0.00,,2013-05-09 14:22:00,
2013-05-09 10:32:00,85.0,59.0,29.26,North,0,0.0,0.0,41,0.00,,,0.00,,2013-05-09 14:32:00,
2013-05-09 10:42:00,85.0,59.0,29.26,North,0,0.0,0.0,41,0.00,,,0.00,,2013-05-09 14:42:00,
2013-05-09 10:52:00,85.0,57.0,29.26,WNW,297,3.0,4.0,39,0.00,,,0.00,,2013-05-09 14:52:00,
2013-05-09 11:02:00,85.0,57.0,29.26,WNW,297,3.0,4.0,39,0.00,,,0.00,,2013-05-09 15:02:00,
2013-05-09 11:11:00,85.0,57.0,29.26,WNW,297,3.0,4.0,39,0.00,,,0.00,,2013-05-09 15:11:00,
2013-05-09 11:22:00,85.0,57.0,29.26,WNW,297,3.0,4.0,39,0.00,,,0.00,,2013-05-09 15:22:00,
2013-05-09 11:33:00,77.0,57.0,29.26,ENE,65,4.0,6.0,51,0.00,,,0.00,,2013-05-09 15:33:00,
2013-05-09 11:43:00,77.0,57.0,29.26,ENE,65,4.0,6.0,51,0.00,,,0.00,,2013-05-09 15:43:00,
2013-05-09 11:53:00,77.0,57.0,29.26,North,0,0.0,7.0,51,0.00,,,0.00,,2013-05-09 15:53:00,
2013-05-09 12:03:00,78.0,61.0,29.26,NE,46,4.0,6.0,55,0.00,,,0.00,,2013-05-09 16:03:00,
2013-05-09 12:12:00,78.0,61.0,29.26,NE,46,4.0,6.0,55,0.00,,,0.00,,2013-05-09 16:12:00,
2013-05-09 12:23:00,78.0,56.0,29.26,North,0,0.0,6.0,46,0.00,,,0.00,,2013-05-09 16:23:00,
2013-05-09 12:33:00,78.0,56.0,29.26,North,0,0.0,6.0,46,0.00,,,0.00,,2013-05-09 16:33:00,
2013-05-09 12:42:00,78.0,56.0,29.26,North,0,0.0,6.0,46,0.00,,,0.00,,2013-05-09 16:42:00,
2013-05-09 12:53:00,80.0,55.0,29.26,ENE,62,3.0,5.0,43,0.00,,,0.00,,2013-05-09 16:53:00,
2013-05-09 13:02:00,80.0,55.0,29.26,ENE,62,3.0,5.0,43,0.00,,,0.00,,2013-05-09 17:02:00,
2013-05-09 13:12:00,80.0,55.0,29.26,ENE,62,3.0,5.0,43,0.00,,,0.00,,2013-05-09 17:12:00,
2013-05-09 13:22:00,80.0,55.0,29.26,ENE,62,3.0,5.0,43,0.00,,,0.00,,2013-05-09 17:22:00,
2013-05-09 13:32:00,77.0,53.0,29.26,North,0,0.0,5.0,43,0.00,,,0.00,,2013-05-09 17:32:00,
2013-05-09 13:42:00,77.0,53.0,29.26,North,0,0.0,5.0,43,0.00,,,0.00,,2013-05-09 17:42:00,
2013-05-09 13:55:00,81.0,55.0,29.26,ENE,66,4.0,7.0,41,0.00,,,0.00,,2013-05-09 17:55:00,
2013-05-09 14:02:00,81.0,55.0,29.26,ENE,66,4.0,7.0,41,0.00,,,0.00,,2013-05-09 18:02:00,
2013-05-09 14:12:00,81.0,55.0,29.26,ENE,66,4.0,7.0,41,0.00,,,0.00,,2013-05-09 18:12:00,
2013-05-09 14:22:00,79.0,54.0,29.26,North,0,0.0,6.0,42,0.00,,,0.00,,2013-05-09 18:22:00,
2013-05-09 14:32:00,79.0,53.0,29.26,NNW,333,6.0,7.0,40,0.00,,,0.00,,2013-05-09 18:32:00,
2013-05-09 14:42:00,79.0,53.0,29.26,NNW,333,6.0,7.0,40,0.00,,,0.00,,2013-05-09 18:42:00,
2013-05-09 14:52:00,82.0,56.0,29.23,North,0,0.0,8.0,41,0.00,,,0.00,,2013-05-09 18:52:00,
2013-05-09 15:01:00,80.0,53.0,29.23,ENE,57,5.0,8.0,40,0.00,,,0.00,,2013-05-09 19:01:00,
2013-05-09 15:12:00,80.0,53.0,29.23,ENE,57,5.0,8.0,40,0.00,,,0.00,,2013-05-09 19:12:00,
2013-05-09 15:21:00,80.0,57.0,29.23,North,0,0.0,7.0,45,0.00,,,0.00,,2013-05-09 19:21:00,
2013-05-09 15:32:00,81.0,54.0,29.23,North,351,4.0,7.0,40,0.00,,,0.00,,2013-05-09 19:32:00,
2013-05-09 15:42:00,81.0,54.0,29.23,North,351,4.0,7.0,40,0.00,,,0.00,,2013-05-09 19:42:00,
2013-05-09 15:52:00,80.0,51.0,29.23,ENE,72,5.0,7.0,37,0.00,,,0.00,,2013-05-09 19:52:00,
2013-05-09 16:01:00,80.0,51.0,29.23,ENE,72,5.0,7.0,37,0.00,,,0.00,,2013-05-09 20:01:00,
2013-05-09 16:11:00,80.0,51.0,29.23,ENE,72,5.0,7.0,37,0.00,,,0.00,,2013-05-09 20:11:00,
2013-05-09 16:22:00,81.0,54.0,29.23,ENE,76,3.0,5.0,40,0.00,,,0.00,,2013-05-09 20:22:00,
2013-05-09 16:32:00,80.0,51.0,29.21,North,0,0.0,4.0,37,0.00,,,0.00,,2013-05-09 20:32:00,
2013-05-09 16:42:00,80.0,53.0,29.21,ENE,66,4.0,6.0,40,0.00,,,0.00,,2013-05-09 20:42:00,
2013-05-09 16:52:00,80.0,53.0,29.21,ENE,66,4.0,6.0,40,0.00,,,0.00,,2013-05-09 20:52:00,
2013-05-09 17:02:00,79.0,53.0,29.21,East,79,6.0,7.0,40,0.00,,,0.00,,2013-05-09 21:02:00,
2013-05-09 17:12:00,79.0,53.0,29.21,East,79,6.0,7.0,40,0.00,,,0.00,,2013-05-09 21:12:00,
2013-05-09 17:22:00,80.0,53.0,29.21,ENE,71,4.0,7.0,40,0.00,,,0.00,,2013-05-09 21:22:00,
2013-05-09 17:32:00,80.0,50.0,29.21,ENE,66,4.0,8.0,35,0.00,,,0.00,,2013-05-09 21:32:00,
2013-05-09 17:43:00,80.0,50.0,29.21,ENE,66,4.0,8.0,35,0.00,,,0.00,,2013-05-09 21:43:00,
2013-05-09 17:52:00,80.0,50.0,29.21,ENE,66,4.0,8.0,35,0.00,,,0.00,,2013-05-09 21:52:00,
2013-05-09 18:03:00,79.0,50.0,29.18,ENE,66,5.0,7.0,36,0.00,,,0.00,,2013-05-09 22:03:00,
2013-05-09 18:13:00,79.0,50.0,29.18,ENE,66,5.0,7.0,36,0.00,,,0.00,,2013-05-09 22:13:00,
2013-05-09 18:23:00,78.0,50.0,29.18,ENE,65,6.0,11.0,37,0.00,,,0.00,,2013-05-09 22:23:00,
2013-05-09 18:33:00,78.0,50.0,29.18,ENE,65,6.0,11.0,37,0.00,,,0.00,,2013-05-09 22:33:00,
2013-05-09 18:42:00,77.0,48.0,29.18,ENE,65,3.0,7.0,36,0.00,,,0.00,,2013-05-09 22:42:00,
2013-05-09 18:52:00,77.0,48.0,29.18,ENE,65,3.0,7.0,36,0.00,,,0.00,,2013-05-09 22:52:00,
2013-05-09 19:02:00,76.0,49.0,29.18,ENE,59,3.0,7.0,38,0.00,,,0.00,,2013-05-09 23:02:00,
2013-05-09 19:12:00,76.0,49.0,29.18,ENE,59,3.0,7.0,38,0.00,,,0.00,,2013-05-09 23:12:00,
2013-05-09 19:22:00,75.0,48.0,29.18,North,0,0.0,4.0,39,0.00,,,0.00,,2013-05-09 23:22:00,
2013-05-09 19:32:00,75.0,48.0,29.18,North,0,0.0,4.0,39,0.00,,,0.00,,2013-05-09 23:32:00,
2013-05-09 19:42:00,75.0,48.0,29.18,North,0,0.0,4.0,39,0.00,,,0.00,,2013-05-09 23:42:00,
2013-05-09 19:52:00,73.0,50.0,29.18,North,0,0.0,5.0,44,0.00,,,0.00,,2013-05-09 23:52:00,
2013-05-09 20:01:00,73.0,50.0,29.18,North,0,0.0,4.0,45,0.00,,,0.00,,2013-05-10 00:01:00,
2013-05-09 20:11:00,73.0,50.0,29.18,North,0,0.0,4.0,45,0.00,,,0.00,,2013-05-10 00:11:00,
2013-05-09 20:22:00,72.0,49.0,29.18,NNE,17,3.0,4.0,45,0.00,,,0.00,,2013-05-10 00:22:00,
2013-05-09 20:32:00,71.0,50.0,29.18,North,0,0.0,0.0,47,0.00,,,0.00,,2013-05-10 00:32:00,
2013-05-09 20:42:00,69.0,55.0,29.18,North,0,0.0,0.0,60,0.00,,,0.00,,2013-05-10 00:42:00,
2013-05-09 20:52:00,69.0,55.0,29.18,North,0,0.0,0.0,60,0.00,,,0.00,,2013-05-10 00:52:00,
2013-05-09 21:01:00,69.0,55.0,29.18,North,0,0.0,0.0,60,0.00,,,0.00,,2013-05-10 01:01:00,
2013-05-09 21:11:00,69.0,55.0,29.18,North,0,0.0,0.0,60,0.00,,,0.00,,2013-05-10 01:11:00,
2013-05-09 21:22:00,66.0,55.0,29.18,North,0,0.0,0.0,68,0.00,,,0.00,,2013-05-10 01:22:00,
2013-05-09 21:32:00,63.0,56.0,29.18,North,0,0.0,0.0,78,0.00,,,0.00,,2013-05-10 01:32:00,
2013-05-09 21:42:00,63.0,56.0,29.18,North,0,0.0,0.0,78,0.00,,,0.00,,2013-05-10 01:42:00,
2013-05-09 21:52:00,63.0,56.0,29.18,North,0,0.0,0.0,78,0.00,,,0.00,,2013-05-10 01:52:00,
2013-05-09 22:02:00,61.0,56.0,29.21,North,0,0.0,0.0,83,0.00,,,0.00,,2013-05-10 02:02:00,
2013-05-09 22:11:00,61.0,56.0,29.21,North,0,0.0,0.0,83,0.00,,,0.00,,2013-05-10 02:11:00,
2013-05-09 22:21:00,60.0,55.0,29.21,North,0,0.0,0.0,84,0.00,,,0.00,,2013-05-10 02:21:00,
2013-05-09 22:32:00,60.0,55.0,29.21,North,0,0.0,0.0,85,0.00,,,0.00,,2013-05-10 02:32:00,
2013-05-09 22:42:00,60.0,56.0,29.21,North,0,0.0,0.0,86,0.00,,,0.00,,2013-05-10 02:42:00,
2013-05-09 22:52:00,60.0,56.0,29.21,North,0,0.0,0.0,86,0.00,,,0.00,,2013-05-10 02:52:00,
2013-05-09 23:01:00,60.0,56.0,29.21,North,0,0.0,0.0,86,0.00,,,0.00,,2013-05-10 03:01:00,
2013-05-09 23:11:00,60.0,56.0,29.21,North,0,0.0,0.0,86,0.00,,,0.00,,2013-05-10 03:11:00,
2013-05-09 23:22:00,59.0,57.0,29.23,North,0,0.0,0.0,92,0.00,,,0.00,,2013-05-10 03:22:00,
2013-05-09 23:33:00,59.0,57.0,29.23,North,0,0.0,0.0,92,0.00,,,0.00,,2013-05-10 03:33:00,
2013-05-09 23:43:00,59.0,57.0,29.23,North,0,0.0,0.0,92,0.00,,,0.00,,2013-05-10 03:43:00,
2013-05-09 23:53:00,59.0,57.0,29.23,North,0,0.0,0.0,92,0.00,,,0.00,,2013-05-10 03:53:00,